Wind_Speed
19 21 22 22 23 22 21 22 22 23 24 26 28 29 30 31 32 32 31 31 29 27 26 25 24 23 22 20 19 19 19 19 19 20 20 19 19 19 19 19 20 20 20 20 20 20 20 19 19 18 17 17 16 16 16 15 15 14 14 14 14 14 14 14 15 15 14 13 12 12 12 13 13 12 11 10 10 10 9 10 10 11 12 13 14
20 22 22 23 22 21 21 22 22 23 25 27 28 30 31 31 32 31 31 30 28 26 25 24 23 21 20 19 19 19 19 19 19 19 19 19 19 19 19 19 20 20 20 20 20 20 19 19 18 18 17 16 16 15 15 14 14 14 13 13 13 13 13 13 13 13 12 12 11 11 11 12 11 10 10 10 10 10 9 9 9 9 10 11 11
22 23 23 22 22 21 21 21 22 23 25 27 29 30 31 31 31 31 30 28 26 25 23 22 21 20 19 19 18 18 18 19 19 19 18 18 18 19 19 20 20 20 20 20 20 20 19 19 18 17 17 16 15 15 14 14 14 14 13 13 13 12 12 12 12 12 11 11 10 10 11 11 11 10 9 9 10 10 10 9 8 8 9 9 8
22 23 22 22 21 20 20 21 22 24 26 27 29 30 31 31 31 30 28 26 24 23 22 21 19 19 18 18 18 18 18 19 19 18 18 18 18 19 19 20 20 20 20 20 20 19 19 18 17 17 16 16 15 15 14 14 14 14 14 13 13 12 11 11 11 11 10 10 9 9 9 10 10 10 9 9 9 9 8 8 9 8 8 8 7
21 22 21 21 20 19 20 21 22 24 26 28 29 30 31 31 30 29 27 25 23 22 20 19 18 18 18 17 17 18 18 19 18 18 18 18 19 19 19 20 20 20 20 19 19 18 18 17 17 16 16 15 15 14 14 14 14 14 14 13 13 12 11 11 10 10 9 8 8 7 8 9 9 9 9 8 9 8 6 6 7 7 6 6 6
19 19 19 19 19 19 20 21 22 24 26 28 29 30 30 30 29 27 25 23 21 20 18 18 18 17 17 17 17 18 18 18 18 18 18 18 19 19 19 19 19 19 19 18 18 17 17 16 16 15 15 15 14 14 14 13 13 13 12 12 11 11 10 10 10 9 8 7 6 7 7 8 8 8 7 7 7 7 5 4 4 5 5 4 5
18 18 18 18 19 19 20 21 23 25 27 28 29 30 30 29 28 26 23 21 20 18 17 17 17 17 17 17 17 18 18 17 17 17 18 18 18 18 18 19 18 18 18 17 16 16 15 15 15 14 14 13 13 12 12 12 11 11 10 9 8 8 8 8 9 8 8 7 7 7 7 8 8 7 6 5 5 4 4 5 4 3 3 2 2
18 18 19 19 19 19 20 21 23 25 27 28 29 29 29 28 26 24 21 20 18 17 17 17 17 16 16 17 17 17 17 17 17 17 18 18 18 17 18 18 17 17 16 15 15 14 14 14 13 13 12 12 12 11 11 11 10 9 9 8 7 5 5 6 6 7 8 8 7 7 7 7 8 7 6 5 5 4 3 4 4 3 3 2 1
18 19 19 20 19 19 20 22 24 25 27 28 29 28 28 27 24 22 20 18 17 16 17 17 17 16 16 17 17 17 17 16 16 17 17 17 17 17 17 16 16 15 14 14 14 13 13 13 12 12 12 11 11 10 10 10 10 9 9 8 7 6 4 4 4 6 7 7 7 7 7 8 8 7 6 5 5 4 3 3 3 3 3 2 1
18 20 20 19 19 20 21 22 24 26 27 28 28 27 26 25 22 20 19 17 16 17 17 17 17 16 16 16 16 16 16 16 16 16 16 16 16 16 15 14 14 13 13 13 13 13 12 12 12 12 11 11 10 10 10 9 9 9 9 9 7 6 5 3 3 4 6 7 7 8 8 8 8 7 5 3 3 3 3 2 1 1 1 2 2
19 20 19 19 19 20 21 23 24 26 27 28 27 26 25 23 20 19 17 16 16 17 17 17 16 16 15 15 15 15 15 16 16 16 16 15 15 14 12 12 12 12 12 12 12 12 12 12 11 11 11 10 10 9 9 9 9 8 9 8 8 7 6 5 4 3 4 5 6 7 7 7 7 7 5 3 2 1 1 1 2 4 4 5 6
19 19 18 19 19 20 21 23 24 26 27 27 26 24 23 21 19 18 16 15 17 17 17 16 15 15 15 15 15 15 15 15 15 14 14 13 13 12 12 11 12 12 12 12 12 12 12 12 12 11 11 10 10 9 8 8 8 8 8 8 8 7 7 6 5 4 4 4 3 4 4 5 5 5 4 3 2 2 2 2 3 5 7 8 9
18 18 18 19 19 20 21 22 24 26 26 25 24 23 21 19 18 16 15 16 17 17 16 15 14 14 14 14 14 15 15 14 14 12 11 11 11 11 11 11 12 12 12 13 13 13 13 13 12 12 11 10 10 9 8 7 7 7 7 8 7 7 7 7 6 7 6 5 4 3 3 3 3 2 2 2 2 4 6 6 7 9 9 9 9
18 18 18 19 20 20 21 23 24 25 25 24 23 21 19 18 17 15 15 16 16 16 15 14 13 13 14 14 14 14 14 13 12 11 10 10 10 10 11 11 12 12 12 13 13 13 13 13 12 12 11 11 10 8 7 7 6 6 6 7 6 6 7 7 8 8 8 7 6 5 5 5 4 4 5 7 8 8 9 9 10 11 11 9 8
18 18 18 19 20 20 21 23 24 24 24 23 21 20 18 17 15 14 15 16 16 15 13 13 13 13 13 13 13 13 13 12 11 10 10 10 10 10 11 11 12 13 13 13 13 13 13 13 12 11 11 10 9 8 7 6 6 5 5 5 5 6 6 7 8 9 8 8 8 8 8 8 9 9 9 11 13 12 11 11 11 12 11 9 8
17 17 18 18 19 20 21 23 24 23 22 21 20 18 17 15 14 15 16 16 15 13 12 12 13 13 13 13 13 13 12 11 10 10 10 11 11 11 11 11 12 13 13 12 12 12 13 12 11 11 10 9 8 8 7 6 5 4 4 4 4 5 6 7 7 8 8 8 9 10 10 10 10 11 11 12 13 13 12 11 11 11 9 8 8
17 17 18 18 19 20 22 23 23 22 21 19 18 17 16 15 14 15 15 14 13 12 12 12 12 12 13 13 13 12 11 10 10 10 10 11 11 12 11 11 12 12 12 12 11 11 12 11 10 10 10 9 8 7 6 5 4 3 3 3 4 4 5 6 6 7 7 7 8 9 10 10 11 11 11 11 11 11 10 10 10 9 8 7 7
17 17 17 18 19 20 22 22 22 21 20 18 17 16 15 14 14 15 14 13 12 11 12 12 12 12 13 13 13 13 12 10 10 10 10 11 12 13 13 12 12 12 12 11 11 11 11 11 10 9 9 8 7 6 5 4 3 2 2 2 3 3 4 5 5 6 6 7 8 9 10 11 12 11 11 10 10 9 8 7 7 8 7 7 7
17 17 17 17 19 20 21 22 21 20 19 18 16 15 14 14 14 14 13 12 11 11 12 12 12 12 13 13 13 13 12 10 9 9 10 11 12 14 14 13 11 11 11 11 11 11 11 10 9 8 8 8 7 6 4 4 3 1 1 1 2 2 3 3 4 5 5 6 7 7 8 9 10 10 10 8 7 6 6 6 6 6 6 6 7
16 16 16 17 19 21 21 21 21 19 18 16 15 13 13 13 14 13 12 11 11 11 12 11 11 12 12 13 13 13 12 10 9 9 10 11 12 14 14 13 11 10 10 11 11 11 11 9 8 8 7 7 6 5 4 3 3 2 2 2 2 2 2 2 3 4 4 5 5 6 6 6 7 7 7 6 5 4 4 5 5 5 5 5 5
15 15 16 17 19 20 21 21 20 19 17 15 13 13 13 13 13 12 11 10 10 11 11 11 11 11 12 12 12 12 12 11 9 9 10 11 13 13 14 12 10 9 10 10 10 11 11 9 7 7 6 6 5 5 3 2 3 4 4 4 3 3 2 2 2 3 3 4 4 4 4 4 4 4 4 4 4 4 4 4 5 5 5 5 4
15 15 16 17 19 21 21 20 19 18 16 14 13 13 13 13 12 11 11 10 10 11 10 10 11 11 12 13 12 11 11 11 11 11 11 12 12 12 12 11 9 8 9 9 9 10 10 9 7 6 6 5 4 4 3 3 3 5 6 5 4 4 3 3 2 2 3 3 3 2 2 2 2 2 3 3 3 4 4 4 4 4 4 4 4
14 15 16 18 19 20 20 19 18 17 15 13 12 12 12 12 11 10 10 10 11 11 10 9 10 11 12 12 12 11 11 11 11 12 12 12 12 11 11 10 9 8 8 8 8 9 10 9 6 5 5 4 4 3 3 3 3 4 5 5 5 4 4 3 2 2 2 2 2 1 1 0 1 2 2 3 4 4 4 4 4 3 3 4 4
14 15 16 18 20 20 19 18 17 15 14 12 12 12 12 12 10 10 10 10 11 10 9 8 9 11 12 13 13 12 11 11 12 12 12 12 11 11 10 9 8 7 7 7 7 7 9 8 6 5 4 4 3 3 3 3 2 2 4 4 5 5 4 3 2 3 3 2 2 1 1 1 1 2 3 4 4 4 4 3 3 3 4 4 5
14 15 17 19 20 19 19 18 16 14 12 11 12 12 12 12 10 10 10 10 11 10 9 9 9 10 11 13 13 13 12 12 12 12 12 11 10 10 9 8 8 6 6 6 6 5 7 8 5 4 3 3 3 3 2 2 1 1 2 2 3 4 4 3 3 3 4 3 3 2 2 2 2 3 4 4 3 3 3 3 4 4 5 5 6
14 16 17 19 19 19 18 17 15 13 12 12 12 13 13 12 11 11 11 11 11 10 9 9 10 10 11 12 13 13 13 13 13 12 12 10 9 9 9 8 7 6 5 4 5 5 6 7 5 3 2 2 2 2 2 1 1 0 0 1 2 3 4 5 5 5 4 4 3 3 2 3 3 3 2 2 2 2 3 4 4 5 5 5 5
15 16 18 18 18 18 17 16 14 12 12 12 13 13 13 12 11 11 11 11 11 10 9 10 11 11 11 12 13 13 14 14 13 12 11 10 9 9 8 8 7 6 5 3 3 4 6 6 4 2 1 1 2 2 2 2 2 2 2 2 2 3 4 5 6 5 4 4 3 2 2 1 1 0 1 2 2 3 4 4 4 4 4 5 5
15 16 17 18 17 17 16 15 13 12 12 13 13 13 13 12 11 11 11 12 11 9 9 10 11 12 12 13 13 13 14 14 13 11 11 10 9 9 8 8 7 6 4 3 2 3 5 5 4 3 1 1 2 2 3 3 4 4 3 4 4 4 4 4 5 4 4 3 3 3 3 3 3 3 3 3 4 4 4 4 4 5 5 5 6
16 16 17 17 16 16 15 14 13 12 12 12 13 13 13 13 12 12 12 12 11 9 9 10 11 12 13 13 13 13 14 14 13 11 10 9 9 8 8 7 6 5 4 3 2 3 5 5 5 3 0 1 2 2 3 5 5 5 5 6 5 5 5 5 5 5 5 5 5 5 5 5 5 4 4 4 4 4 4 4 5 5 5 6 6
16 16 16 16 16 15 14 13 13 12 12 12 12 12 13 13 12 12 13 13 12 9 9 10 11 12 13 14 14 14 14 13 12 11 10 9 9 8 8 7 6 5 5 4 3 4 4 5 5 3 1 2 1 2 4 5 6 6 7 7 7 7 7 7 7 7 7 7 6 6 6 6 5 5 5 4 5 5 5 5 5 5 6 6 7
16 16 16 16 15 14 13 13 12 12 12 11 12 12 13 13 13 13 13 13 12 10 9 10 11 13 13 14 14 14 14 13 12 11 10 9 9 8 7 7 6 5 5 4 4 4 5 5 5 4 2 2 2 3 5 6 7 7 7 8 8 8 7 8 8 8 8 7 7 7 6 6 6 5 5 5 5 6 6 6 5 6 6 6 7
15 16 15 15 15 14 13 12 12 12 11 11 11 12 13 13 13 13 14 14 12 10 9 10 12 13 14 14 14 14 13 13 12 11 10 9 9 8 7 6 5 5 5 4 4 5 5 5 5 5 3 3 3 4 5 7 8 8 8 8 9 8 8 8 8 8 8 7 7 7 6 6 5 5 5 5 5 6 6 5 5 6 6 6 7
15 15 15 15 14 13 12 12 12 12 11 10 11 12 13 13 14 14 14 14 12 11 10 10 13 14 14 15 15 14 13 13 12 12 11 10 9 7 6 5 5 5 5 5 4 5 6 6 6 5 4 4 5 5 6 8 9 9 9 9 9 9 8 8 8 7 7 7 7 6 6 5 5 5 5 5 5 5 5 5 5 6 7 8 8
15 15 16 15 13 12 11 12 12 12 11 10 11 12 13 13 14 14 15 14 13 11 10 11 13 14 14 15 15 14 13 13 12 12 11 10 9 7 5 4 5 5 5 5 5 5 6 7 7 7 6 6 7 7 7 8 9 9 9 9 8 8 8 8 7 7 7 6 6 5 5 4 4 4 4 4 4 4 5 5 5 6 8 9 10
15 16 15 13 12 11 11 12 12 11 10 10 11 12 13 13 14 15 15 15 13 11 10 12 13 14 14 15 15 14 13 12 12 12 11 10 8 6 4 4 4 5 5 5 5 6 7 8 8 8 7 9 9 9 9 9 9 9 8 8 7 7 7 6 6 6 6 5 5 4 4 4 4 4 4 4 4 5 5 5 6 7 8 8 8
16 16 14 12 12 11 11 12 12 11 10 10 11 12 13 14 15 15 15 15 13 10 11 13 13 14 14 14 14 14 13 12 11 11 10 9 7 6 4 4 4 5 5 5 6 7 8 8 8 8 9 10 11 10 10 9 8 8 7 6 6 6 5 5 5 5 4 4 4 4 3 3 3 3 3 4 4 5 5 6 6 7 6 6 6
16 15 13 12 11 11 12 12 11 10 10 10 11 12 13 13 14 15 15 14 12 10 12 13 13 14 15 14 14 13 13 12 11 10 9 8 7 5 4 4 4 5 6 6 6 7 8 9 9 9 10 10 10 10 9 8 7 6 6 5 5 4 4 4 3 3 3 3 3 3 3 3 2 2 2 3 4 4 5 5 5 5 4 4 3
15 13 12 12 11 11 12 12 11 10 10 11 11 12 13 13 14 14 15 13 11 11 12 12 13 14 14 14 14 13 13 12 11 10 8 7 6 5 4 4 5 6 7 7 7 8 8 9 10 10 9 9 8 8 7 7 6 5 5 4 4 3 3 3 3 3 3 3 3 4 3 3 2 1 1 2 3 3 3 3 3 3 2 2 2
15 13 12 12 11 11 12 11 10 10 10 11 11 12 13 13 13 14 14 12 11 11 12 12 13 14 14 14 13 13 13 12 11 9 7 6 5 5 4 4 5 6 8 8 8 8 9 10 10 9 8 7 6 6 5 5 5 4 4 4 3 3 3 3 3 3 4 4 4 5 4 3 2 2 2 1 2 2 3 2 2 1 1 2 4
14 13 12 11 11 11 11 11 10 10 11 11 12 12 12 13 13 14 13 11 11 11 11 11 12 13 14 13 13 13 12 11 10 9 7 6 5 4 4 5 6 7 8 9 10 9 8 9 8 7 7 6 5 5 4 4 3 3 3 3 3 3 3 4 4 5 5 5 5 5 5 4 3 2 2 3 3 3 3 3 2 2 3 5 6
13 12 12 10 10 11 11 10 10 11 12 12 12 12 12 13 13 13 12 10 11 11 11 11 12 13 13 13 13 13 12 11 9 8 7 6 4 4 5 6 7 8 9 10 11 10 8 8 7 7 6 5 5 4 4 3 3 3 3 3 3 3 4 4 5 5 6 6 7 7 7 6 5 4 4 5 5 5 5 5 5 5 6 7 8
13 12 11 10 10 10 10 10 11 11 12 13 12 12 13 13 13 12 11 10 11 11 12 12 12 12 12 12 13 12 11 10 9 7 6 6 5 5 6 6 8 9 9 9 10 10 9 8 7 7 6 6 5 5 4 4 4 4 4 5 5 5 5 5 5 6 6 7 7 8 9 8 7 7 7 7 7 7 7 7 6 7 7 9 10
12 11 11 10 10 10 10 11 11 11 12 13 12 13 13 13 13 12 10 10 10 11 12 13 12 12 12 12 12 11 10 9 8 7 6 5 5 6 6 7 8 9 9 9 8 9 9 9 8 7 6 6 5 5 5 5 5 5 5 6 7 7 7 7 7 7 7 7 7 8 9 9 9 9 10 9 9 9 9 8 8 9 10 11 12
12 11 11 10 10 10 10 11 11 12 12 12 12 12 13 13 12 11 10 10 10 11 12 13 12 12 12 12 11 10 9 9 8 6 5 5 6 6 7 7 7 8 8 9 9 9 9 9 9 8 7 7 6 6 6 6 6 6 7 7 8 8 8 8 8 8 8 9 8 8 9 10 11 11 12 11 11 11 11 11 11 11 12 13 14
12 12 11 10 9 10 11 12 12 12 12 12 12 12 12 12 12 11 10 10 10 10 12 12 12 12 12 11 10 9 9 8 7 6 5 6 6 6 7 7 7 8 8 8 9 9 9 9 8 8 7 7 7 7 7 7 7 7 8 8 8 9 9 9 8 8 9 9 9 9 10 11 12 12 13 12 12 13 13 13 13 13 14 14 15
12 12 11 10 10 10 11 12 12 12 12 11 11 11 12 12 11 10 10 11 10 11 12 12 11 11 11 11 9 8 8 7 6 6 6 6 7 7 7 7 8 8 8 8 8 8 7 7 7 7 7 7 8 8 8 8 8 8 7 7 8 9 9 9 9 9 9 9 10 10 11 11 12 12 13 13 13 13 14 15 15 15 15 15 15
12 12 11 10 10 11 12 13 13 12 12 11 11 11 11 11 11 11 11 11 10 11 12 12 11 11 11 10 8 7 7 7 6 6 6 6 7 7 7 7 8 8 8 7 7 7 6 7 7 7 8 8 8 8 8 8 8 7 7 7 7 8 8 8 8 9 9 9 10 10 11 11 12 12 13 13 13 14 14 15 16 16 16 16 16
13 12 12 11 11 12 12 13 13 13 12 12 11 11 11 11 11 11 11 11 11 12 12 12 11 11 10 10 8 7 7 7 7 6 6 7 7 8 8 8 8 8 8 8 7 7 8 8 8 8 8 8 8 8 8 8 7 7 7 7 8 8 8 7 8 8 9 9 10 10 11 11 12 12 13 13 13 14 15 16 16 17 17 17 17
13 13 12 12 12 12 12 12 12 13 13 12 12 12 12 12 12 12 11 11 11 12 12 12 11 11 10 10 9 7 7 8 8 7 7 8 8 8 8 8 8 9 9 10 9 9 9 9 8 8 8 7 8 8 8 8 7 7 7 7 7 7 7 7 7 8 8 9 9 10 11 12 12 13 13 13 14 14 15 15 16 16 16 17 17
13 13 13 13 13 12 12 12 12 13 13 13 13 13 12 13 13 13 12 11 11 12 12 12 12 11 11 10 10 8 8 9 9 9 9 9 9 9 9 9 9 10 11 11 11 10 10 9 9 9 9 8 8 9 9 8 8 8 7 7 7 7 7 7 7 8 8 8 9 10 11 12 12 13 14 14 14 15 16 16 16 16 17 17 17
13 13 13 14 14 13 12 12 13 13 14 14 14 14 14 13 14 14 13 12 12 12 13 13 12 11 11 11 11 10 9 10 10 10 10 10 10 10 10 10 10 11 12 12 11 11 10 10 10 10 10 10 10 10 9 9 8 8 8 7 7 8 8 8 9 9 9 10 10 11 11 12 13 14 15 15 16 16 17 18 18 18 18 18 18
Wind_Direction
304 306 306 306 305 305 307 311 314 318 323 327 329 330 331 331 333 334 334 333 333 332 331 330 329 329 328 328 328 328 328 328 328 328 328 327 327 325 324 324 323 323 322 321 321 320 320 320 321 321 321 321 322 323 324 324 324 323 322 321 320 317 316 314 313 314 317 318 318 316 308 300 295 288 289 293 290 285 277 271 267 264 264 264 264
303 305 304 303 302 302 306 310 314 319 324 327 329 330 330 332 333 334 334 333 333 332 331 330 330 329 328 328 327 327 328 328 329 329 329 328 327 326 325 325 324 323 323 322 323 322 322 323 323 323 323 323 324 324 325 324 324 324 324 324 323 323 322 322 319 321 323 321 320 317 310 304 297 293 301 303 297 290 282 272 264 259 258 258 261
298 300 301 302 300 300 306 310 315 321 325 327 328 329 330 332 334 334 334 333 333 332 331 330 329 329 328 327 327 327 328 329 329 329 329 328 326 326 326 326 326 325 324 325 325 325 324 324 324 324 323 322 323 324 323 322 321 321 321 321 323 325 325 325 324 327 326 322 321 317 312 307 301 304 311 306 299 295 291 286 280 277 270 263 261
295 296 299 301 299 300 306 311 317 322 325 326 327 329 331 333 334 334 333 333 331 331 330 329 328 327 327 327 327 327 328 328 329 328 327 326 326 327 328 327 326 325 325 326 326 325 325 324 324 323 323 323 324 323 322 319 317 316 315 315 317 320 321 322 323 325 324 321 320 315 310 306 304 308 308 300 295 296 298 301 299 296 289 281 272
295 295 296 297 298 302 307 312 318 322 324 325 327 329 331 333 334 334 333 332 331 330 329 328 327 326 326 326 327 327 327 327 327 326 326 326 327 328 328 327 327 327 327 327 327 326 326 325 325 325 326 327 327 326 324 321 318 314 312 310 309 310 312 313 315 315 314 315 314 311 305 302 302 301 301 299 298 302 302 300 303 303 299 304 304
296 295 295 296 299 304 309 314 319 322 323 325 326 329 332 333 334 333 332 331 330 329 328 326 326 326 326 326 326 325 326 325 325 325 325 326 328 329 329 329 329 329 329 329 329 329 329 329 329 331 332 333 334 333 331 329 326 323 319 314 309 306 304 305 305 304 302 301 303 301 297 296 293 291 300 304 305 311 309 291 289 300 295 308 323
298 298 298 300 303 307 311 316 319 321 323 324 326 329 332 333 333 332 331 330 329 327 326 325 324 325 325 324 324 324 324 324 324 324 325 327 329 330 331 331 331 331 331 331 333 333 333 334 334 336 338 338 341 342 341 343 344 341 340 337 326 313 305 301 298 294 290 291 293 292 291 290 288 289 301 307 310 317 317 304 292 297 286 289 311
301 302 303 303 306 309 313 317 318 320 322 324 326 330 332 332 332 331 329 328 327 325 323 323 322 323 324 324 324 323 323 323 323 325 326 328 330 332 332 332 332 332 334 335 337 337 338 339 337 340 341 342 346 349 352 356 359 358 359 1 355 341 323 306 295 287 285 288 288 287 286 286 288 292 306 319 320 318 315 304 298 309 310 310 337
305 305 304 304 307 310 313 316 317 319 322 324 327 330 331 331 330 329 327 327 325 322 321 321 322 323 324 324 323 323 323 324 325 327 328 330 331 332 333 333 334 337 339 341 340 340 340 340 339 340 341 344 348 352 357 1 5 6 8 11 11 10 360 331 303 289 287 287 286 284 282 282 286 294 308 316 308 314 326 303 293 305 314 334 7
306 305 304 304 307 310 313 315 317 319 321 324 327 329 330 329 328 327 326 324 322 320 319 321 323 324 324 323 323 324 325 327 328 328 329 330 331 332 335 337 339 341 343 342 340 338 338 337 336 336 337 341 345 349 355 359 7 11 12 15 18 23 23 9 337 304 293 288 286 283 281 280 284 295 304 294 282 305 335 330 348 44 53 61 82
305 304 303 304 306 309 312 314 317 319 321 323 326 328 328 327 326 325 324 322 320 319 320 322 324 324 324 324 325 327 328 329 328 328 329 331 332 334 340 343 341 341 341 338 336 333 331 330 330 329 330 334 338 344 350 356 7 13 15 15 20 30 32 28 12 339 314 301 295 288 287 288 292 300 307 312 323 339 354 29 52 69 82 85 91
303 303 303 303 305 308 311 313 316 318 320 323 325 327 326 325 324 323 322 320 318 319 321 323 324 323 324 325 327 329 328 327 327 328 332 335 337 340 342 343 341 338 337 333 329 327 324 322 321 321 322 325 330 337 344 351 4 13 15 15 20 31 34 32 26 15 4 353 335 317 309 309 311 316 328 348 9 55 82 90 87 86 87 88 89
300 300 301 302 304 307 309 312 316 317 319 322 324 325 324 324 324 322 320 318 318 319 322 323 323 323 324 326 328 329 328 327 329 332 337 340 341 342 341 340 339 336 332 329 326 324 320 317 316 316 315 317 321 328 337 345 359 9 14 18 20 30 33 32 31 29 28 30 26 17 7 357 355 359 32 76 84 87 91 91 91 90 86 84 83
296 296 298 300 302 305 309 312 314 316 319 322 324 324 323 323 322 320 317 316 317 319 322 321 321 322 323 326 328 329 329 330 332 336 339 341 341 341 340 338 337 334 330 327 326 324 319 316 316 315 313 313 314 317 326 337 353 6 15 20 21 29 32 31 34 35 39 47 54 56 56 55 62 69 85 100 102 98 97 95 93 92 90 88 80
291 292 296 299 301 304 308 311 312 316 319 322 323 323 322 321 319 316 315 315 316 319 319 317 317 319 323 327 329 331 331 332 334 337 338 338 339 341 341 338 335 331 327 327 327 324 319 317 319 318 315 314 312 309 313 327 345 360 14 23 23 30 33 33 38 42 49 61 72 76 76 75 82 87 88 94 98 97 96 95 92 89 89 87 79
287 289 293 296 299 303 306 308 311 316 319 321 321 321 320 318 315 313 313 313 315 316 314 312 314 317 322 327 331 332 332 333 334 336 336 336 337 339 341 338 334 329 326 327 327 324 320 321 324 322 318 317 314 307 305 314 332 350 8 24 30 35 39 40 45 51 56 66 78 85 85 84 88 91 90 92 95 97 98 98 94 89 87 83 76
284 287 291 294 297 301 303 307 312 316 318 320 319 318 317 314 311 310 311 312 313 313 309 309 312 317 323 330 334 333 333 334 336 336 335 335 335 336 338 337 333 328 326 327 328 326 324 327 331 327 322 319 316 309 302 301 315 341 1 25 38 44 47 47 50 56 60 67 78 87 91 92 91 89 88 90 93 96 98 96 93 89 82 74 66
282 286 289 293 296 299 303 308 313 316 317 318 317 315 313 310 308 308 309 310 310 307 305 307 313 320 328 335 337 336 335 337 337 336 336 336 334 332 334 335 332 328 326 326 328 327 326 332 334 328 324 320 317 315 305 293 294 325 358 30 49 57 57 53 56 61 66 71 79 88 96 99 99 95 91 90 90 89 85 77 70 66 58 46 41
282 286 289 292 296 300 304 310 313 315 316 316 314 312 309 306 305 306 307 307 306 304 303 307 315 325 333 337 338 338 338 339 339 337 337 335 332 329 330 334 333 329 325 325 327 327 327 333 333 326 323 320 317 315 308 293 273 278 3 79 76 73 75 68 68 73 76 80 85 89 94 100 102 103 101 96 92 86 75 64 52 48 41 31 26
282 285 288 293 297 301 305 310 313 314 315 314 312 307 304 302 302 304 304 304 303 300 301 309 319 329 337 341 341 338 336 336 336 334 334 332 329 327 329 333 335 331 326 325 327 326 324 328 329 326 323 319 316 313 308 290 253 229 190 162 150 129 115 102 95 93 93 93 92 90 89 92 95 100 102 99 93 79 61 50 41 35 27 19 14
282 285 289 294 298 301 306 309 312 313 313 311 306 302 301 301 301 301 299 299 297 296 302 312 322 331 337 344 343 337 331 328 330 332 332 330 327 326 327 330 333 331 326 325 328 325 320 322 327 327 326 320 313 312 304 277 234 211 198 186 178 173 163 145 131 122 114 109 101 95 89 86 80 73 73 73 68 54 41 31 22 12 6 7 9
282 287 292 295 298 302 306 309 310 311 310 307 304 301 300 300 299 298 296 294 290 291 303 315 324 333 338 342 341 333 325 324 327 330 330 328 326 324 324 325 329 329 326 325 327 324 317 319 327 332 331 320 309 305 294 265 231 212 204 197 192 190 182 168 158 158 142 129 120 109 94 76 61 51 37 31 28 20 15 10 2 356 360 12 24
284 288 292 294 298 301 305 307 308 309 308 306 302 298 296 295 295 294 292 286 283 290 303 316 324 334 338 337 334 327 321 320 323 327 327 326 323 321 321 321 323 326 325 322 323 322 314 313 325 339 336 322 308 296 287 273 251 230 216 206 199 198 196 180 172 178 171 160 155 148 146 40 19 17 6 360 358 350 352 358 359 8 23 35 47
285 288 291 294 297 300 304 306 308 309 308 304 296 292 290 288 288 285 282 278 279 289 301 313 322 330 335 333 330 325 320 317 320 324 324 323 320 317 317 316 317 322 322 317 318 320 310 305 322 345 340 321 307 297 300 299 283 257 232 218 202 198 201 192 179 185 186 190 197 203 231 277 320 337 336 339 341 340 353 12 22 39 50 57 63
284 288 291 294 297 300 303 306 309 309 304 297 289 287 285 283 283 279 276 274 277 287 298 307 316 326 332 330 327 323 318 317 319 322 320 320 318 314 313 311 314 317 316 312 314 317 304 298 316 349 341 314 308 316 327 328 316 283 246 223 203 190 192 192 187 191 197 203 212 230 261 292 317 324 326 337 345 354 23 44 52 61 67 70 71
284 288 291 294 297 300 304 308 309 306 298 289 284 282 281 281 281 277 273 270 274 284 293 302 312 322 328 328 325 319 316 316 318 320 318 318 316 311 309 308 311 313 310 308 309 309 294 290 306 340 337 320 330 353 7 19 52 80 156 163 168 171 181 190 193 198 205 209 218 238 267 293 311 319 328 359 23 44 62 68 71 74 75 75 73
283 287 291 294 297 301 305 309 307 300 291 284 281 280 281 281 278 273 269 268 272 281 292 303 312 320 325 326 323 316 313 314 316 317 316 315 313 308 306 307 309 309 304 299 301 296 285 283 295 310 327 359 18 33 47 64 80 95 109 114 124 144 166 183 192 200 206 211 217 230 243 257 276 340 82 84 93 90 86 86 87 85 81 77 75
282 287 291 295 298 302 306 306 302 294 287 282 280 280 281 280 275 269 265 264 268 276 290 301 311 318 321 322 319 314 311 312 313 314 313 312 308 305 305 307 307 304 295 280 275 277 276 279 279 277 310 39 48 60 72 81 87 95 103 104 109 120 136 156 170 180 186 185 181 175 159 140 131 122 114 113 111 104 97 94 88 84 80 77 75
283 288 292 297 300 303 304 301 296 290 284 280 279 279 279 279 272 265 260 261 264 271 285 298 308 313 315 317 317 312 310 310 310 310 310 308 306 306 306 306 303 296 281 261 243 250 264 269 266 260 237 74 74 88 90 92 97 103 106 103 105 108 115 127 134 140 144 145 143 139 133 126 123 122 123 122 114 105 98 92 85 82 81 79 78
285 291 296 300 300 300 298 294 290 286 283 280 277 277 278 277 270 262 259 258 262 268 281 295 304 308 311 315 314 311 309 308 307 307 307 307 306 307 306 303 298 286 268 247 227 229 243 254 257 253 192 113 120 122 110 106 107 108 108 106 107 107 110 115 117 122 127 130 130 128 126 125 127 126 123 115 105 101 98 93 91 88 86 83 79
288 294 299 299 297 294 291 288 287 283 280 277 275 276 278 277 271 262 258 258 261 268 278 292 300 304 310 313 312 310 309 307 306 307 308 308 306 306 304 300 292 276 260 239 218 221 227 234 247 246 197 147 156 147 126 119 118 115 113 112 111 110 112 115 117 122 126 127 129 130 130 128 124 118 109 101 97 98 99 97 94 91 88 85 83
291 296 297 294 291 287 285 284 282 279 277 274 274 276 277 275 271 262 258 260 262 267 277 291 299 303 309 311 310 310 309 308 307 308 309 308 306 305 304 297 285 266 251 234 213 216 220 218 229 232 201 167 166 155 135 129 128 123 119 118 117 118 120 121 124 130 131 133 134 133 129 122 114 106 100 96 96 98 98 97 95 95 95 94 92
292 294 291 286 285 282 280 278 276 275 273 272 272 274 275 273 269 261 258 260 261 266 276 289 296 301 308 309 308 310 309 308 308 310 311 308 307 307 302 286 269 255 242 228 208 205 214 211 211 214 198 175 169 159 141 134 134 128 124 124 125 128 130 131 135 138 137 136 135 130 122 116 110 103 99 99 100 101 100 98 99 101 102 102 101
291 288 284 281 281 278 274 273 273 273 270 269 271 274 277 274 268 261 257 259 261 265 276 287 293 299 306 308 308 309 309 309 310 311 310 308 308 305 289 267 252 245 235 222 202 193 205 207 201 201 190 173 169 161 146 140 138 133 131 134 136 136 138 143 147 144 139 136 132 126 123 117 110 105 103 101 101 100 98 96 97 97 99 102 104
286 281 280 279 276 273 270 269 270 271 269 269 273 277 279 274 266 259 255 256 260 265 276 285 291 298 305 307 307 308 308 309 311 310 307 306 305 295 272 250 236 229 224 215 198 188 198 202 197 192 179 167 164 157 150 148 144 141 142 144 144 144 148 152 151 147 141 139 135 133 134 126 116 109 103 96 92 91 89 90 92 94 98 101 102
281 278 278 274 271 269 266 266 266 267 268 271 277 279 278 272 263 256 253 255 259 265 275 282 290 298 304 306 306 307 307 309 310 307 304 302 298 284 262 237 218 207 207 206 197 190 191 192 188 182 170 160 158 155 154 155 151 150 153 155 153 153 158 158 154 154 153 151 149 149 150 138 124 116 106 95 89 88 88 91 93 94 96 94 89
277 276 274 268 265 263 262 263 262 263 267 273 277 277 275 270 264 257 253 256 259 264 273 282 291 300 304 306 306 306 308 310 309 305 302 297 288 275 256 226 203 190 189 196 197 191 183 180 178 173 163 156 154 155 157 159 157 159 164 166 167 168 172 171 169 173 176 175 174 176 171 149 132 125 112 104 101 100 99 97 97 94 89 79 65
274 272 266 261 259 258 259 260 259 261 268 274 277 278 277 272 264 257 254 256 258 262 271 283 293 301 304 306 306 306 309 311 308 303 298 290 279 268 246 215 192 179 176 183 194 190 176 172 172 169 162 155 153 155 158 162 162 166 171 175 178 186 194 199 199 207 213 210 206 203 194 170 149 156 142 119 120 124 122 114 106 95 73 42 18
269 266 258 255 255 255 257 258 259 263 270 274 277 279 279 274 265 257 255 256 255 260 272 284 294 301 304 305 305 307 309 310 305 300 293 281 271 260 234 203 180 170 168 171 181 184 174 169 170 170 165 161 161 161 162 165 168 173 181 188 196 208 226 239 241 240 237 230 225 219 211 199 184 193 224 217 188 170 165 166 158 132 348 331 328
266 261 255 253 252 253 255 257 261 267 273 277 278 279 277 273 266 259 257 254 254 263 274 286 296 300 302 304 305 307 309 306 300 295 286 271 259 244 220 193 170 163 163 163 167 175 176 171 173 177 174 171 174 175 174 176 185 198 205 211 216 222 237 248 253 255 254 249 242 236 229 225 221 227 247 253 246 233 223 227 243 275 300 312 314
262 256 252 252 251 250 252 256 262 269 274 278 281 282 277 273 270 264 258 252 255 266 278 288 296 299 301 303 304 307 307 301 294 288 277 261 243 220 204 183 165 160 161 162 163 169 177 180 182 187 187 186 190 195 199 202 213 236 248 252 251 249 248 248 252 253 253 252 249 247 242 240 240 244 249 252 252 253 253 258 269 283 296 302 305
256 251 249 251 249 247 250 254 262 269 273 279 283 284 281 277 273 268 258 251 257 269 282 289 294 298 300 302 304 305 304 297 289 281 267 250 227 202 190 177 165 162 162 165 167 170 179 190 195 197 197 197 204 211 224 233 237 247 260 269 272 272 270 265 261 257 253 249 247 246 244 243 244 247 252 254 255 258 260 265 273 281 289 294 297
251 250 250 250 247 245 248 254 262 268 273 279 284 285 283 280 275 268 258 254 260 272 282 288 293 297 300 302 304 304 300 292 283 272 254 233 212 194 183 176 169 168 167 170 175 178 185 193 197 200 204 210 218 224 235 248 255 262 268 273 276 276 276 275 272 270 268 264 259 256 256 255 255 255 258 262 265 268 271 274 279 283 288 291 294
248 249 250 249 246 245 248 256 264 269 274 280 284 285 284 281 275 268 260 257 263 273 282 287 293 297 299 301 303 301 294 285 275 259 236 214 202 191 183 181 180 179 179 180 185 189 191 194 198 201 206 216 229 237 243 251 258 264 267 270 273 274 273 273 273 273 276 277 274 270 270 268 265 262 262 264 268 272 276 279 284 288 290 293 297
245 247 250 248 244 243 249 258 266 271 276 282 284 285 284 281 276 269 261 260 267 275 280 284 290 294 296 299 300 295 288 277 265 244 217 202 195 193 190 190 194 195 194 194 196 197 197 202 207 210 215 223 233 240 245 250 255 260 263 265 270 273 274 275 276 278 279 281 280 276 271 268 266 266 266 268 272 277 280 283 285 287 288 292 296
246 248 250 248 242 243 251 260 268 274 281 285 286 286 285 282 278 270 264 265 271 276 278 281 287 290 293 296 294 288 280 267 252 230 209 200 197 198 201 203 210 212 208 206 209 212 214 221 228 235 239 242 244 245 246 248 251 255 259 262 265 270 274 277 279 281 281 280 280 278 275 272 271 271 272 275 278 282 284 285 285 284 285 289 294
249 251 251 246 240 243 252 261 270 278 284 288 287 286 285 283 278 271 268 272 276 276 277 280 285 287 291 292 286 277 269 255 240 223 209 206 206 209 214 217 225 230 228 224 225 233 241 248 255 261 264 264 262 258 253 250 249 250 252 254 256 259 263 269 274 278 279 279 279 279 280 279 279 278 278 280 281 281 283 284 284 285 287 290 293
250 252 250 244 239 243 253 264 273 282 287 289 289 287 284 283 278 273 273 277 278 275 274 279 282 285 289 288 278 265 256 245 235 226 217 214 218 222 226 230 237 244 249 249 248 252 259 265 270 272 273 274 273 269 263 258 253 250 248 249 250 250 253 259 266 271 275 278 280 282 283 284 284 285 286 288 288 288 287 286 286 287 289 291 293
251 253 250 243 239 245 256 267 277 285 289 291 290 288 284 280 277 275 277 279 277 272 270 275 280 283 285 281 269 255 247 240 236 233 227 224 228 233 236 240 246 252 257 261 265 269 272 275 277 277 276 275 274 272 268 264 260 257 255 255 257 261 265 269 272 275 278 282 286 289 292 294 295 295 295 294 292 290 287 287 287 289 291 293 296
253 254 250 244 241 247 258 269 279 286 289 291 290 287 283 279 277 277 278 279 278 271 268 272 276 277 280 277 264 250 243 240 237 237 237 233 233 237 239 242 248 254 259 265 271 275 277 279 280 281 280 278 275 272 268 265 264 264 266 270 275 282 287 289 291 293 295 297 299 301 301 301 300 299 297 296 294 292 290 290 291 292 294 296 298
257 255 250 244 243 249 259 270 280 286 289 289 287 285 282 278 277 277 278 279 279 274 269 269 271 271 274 274 264 250 243 242 241 240 241 239 236 236 238 241 244 251 260 266 271 274 277 280 282 283 283 283 282 278 274 270 270 273 277 283 288 294 298 301 305 307 308 309 308 307 307 306 306 306 305 305 304 302 300 299 299 299 299 299 299
Height
5856 5855 5855 5854 5854 5853 5853 5852 5851 5850 5849 5847 5846 5844 5842 5840 5838 5835 5833 5831 5829 5827 5826 5824 5823 5821 5820 5819 5818 5817 5816 5815 5814 5813 5812 5812 5811 5810 5810 5809 5809 5808 5808 5807 5807 5806 5806 5805 5805 5805 5804 5804 5803 5803 5802 5802 5801 5801 5801 5800 5800 5800 5800 5799 5799 5799 5799 5800 5800 5800 5800 5799 5797 5797 5797 5799 5799 5799 5799 5799 5799 5799 5800 5800 5800
5854 5854 5854 5853 5853 5852 5852 5851 5850 5849 5847 5846 5844 5842 5840 5838 5836 5834 5832 5829 5828 5826 5824 5823 5822 5820 5819 5818 5817 5816 5815 5814 5813 5812 5812 5811 5810 5810 5809 5809 5808 5808 5807 5807 5806 5806 5805 5805 5805 5804 5804 5803 5802 5802 5801 5801 5801 5800 5800 5800 5799 5799 5799 5798 5798 5798 5799 5799 5799 5799 5798 5797 5796 5796 5798 5798 5798 5798 5798 5797 5797 5797 5797 5798 5798
5853 5853 5852 5852 5851 5851 5850 5850 5849 5847 5846 5844 5842 5841 5839 5836 5834 5832 5830 5828 5826 5825 5823 5822 5821 5819 5818 5817 5816 5815 5814 5813 5813 5812 5811 5810 5810 5809 5809 5808 5808 5807 5807 5807 5806 5805 5805 5804 5804 5803 5803 5802 5802 5801 5801 5800 5800 5799 5799 5799 5799 5798 5798 5798 5797 5797 5797 5797 5797 5797 5797 5796 5795 5796 5798 5798 5797 5798 5798 5797 5797 5797 5796 5796 5796
5851 5851 5851 5851 5850 5850 5849 5848 5847 5846 5844 5843 5841 5839 5837 5835 5832 5830 5828 5826 5825 5824 5822 5821 5820 5819 5818 5817 5815 5814 5814 5813 5812 5811 5811 5810 5810 5809 5808 5808 5807 5807 5807 5806 5805 5805 5804 5804 5803 5802 5802 5801 5801 5800 5800 5799 5799 5798 5798 5798 5798 5798 5797 5797 5797 5797 5796 5796 5796 5796 5796 5795 5795 5795 5796 5796 5796 5797 5797 5797 5797 5797 5796 5796 5795
5850 5850 5850 5850 5849 5848 5848 5847 5846 5844 5843 5841 5839 5837 5835 5833 5831 5829 5827 5825 5824 5823 5821 5820 5819 5818 5817 5816 5815 5814 5813 5812 5812 5811 5810 5810 5809 5809 5808 5808 5807 5807 5806 5805 5805 5804 5803 5803 5802 5802 5801 5800 5800 5799 5799 5798 5798 5797 5797 5797 5797 5797 5797 5796 5796 5796 5795 5795 5795 5795 5795 5795 5795 5795 5795 5796 5796 5796 5796 5796 5796 5796 5796 5796 5797
5849 5849 5849 5848 5848 5847 5846 5845 5844 5842 5841 5839 5838 5836 5834 5831 5829 5828 5826 5824 5823 5822 5821 5819 5818 5817 5816 5815 5814 5813 5813 5812 5811 5811 5810 5809 5809 5808 5808 5807 5807 5806 5806 5805 5804 5804 5803 5802 5801 5801 5800 5800 5799 5799 5798 5797 5797 5796 5796 5796 5796 5796 5796 5796 5795 5795 5794 5795 5795 5794 5794 5794 5794 5794 5795 5796 5795 5795 5795 5795 5795 5795 5795 5796 5797
5848 5848 5847 5847 5846 5845 5845 5843 5842 5841 5839 5838 5836 5834 5832 5830 5828 5826 5825 5824 5822 5821 5820 5819 5818 5817 5816 5815 5814 5813 5812 5812 5811 5810 5810 5809 5809 5808 5807 5807 5806 5806 5805 5804 5804 5803 5802 5802 5801 5800 5800 5799 5799 5798 5797 5797 5796 5796 5795 5795 5795 5795 5795 5795 5794 5794 5793 5794 5794 5794 5793 5793 5793 5794 5794 5794 5794 5794 5794 5794 5794 5794 5794 5795 5795
5846 5846 5845 5845 5844 5844 5843 5842 5841 5839 5838 5836 5834 5832 5830 5828 5827 5825 5824 5823 5822 5820 5819 5818 5817 5816 5815 5814 5813 5813 5812 5811 5811 5810 5809 5809 5808 5808 5807 5807 5806 5806 5805 5804 5804 5803 5802 5802 5801 5800 5800 5799 5798 5798 5797 5797 5796 5796 5795 5795 5795 5794 5794 5794 5794 5793 5792 5793 5793 5793 5793 5793 5793 5793 5793 5794 5794 5794 5794 5794 5794 5794 5795 5795 5794
5844 5844 5843 5843 5842 5842 5841 5840 5839 5838 5836 5835 5833 5831 5829 5827 5826 5824 5823 5822 5821 5820 5819 5818 5817 5816 5815 5814 5813 5812 5811 5811 5810 5809 5809 5808 5808 5807 5807 5806 5806 5805 5805 5804 5803 5803 5802 5801 5801 5800 5799 5799 5798 5798 5797 5797 5796 5796 5795 5795 5794 5794 5794 5794 5793 5792 5792 5792 5792 5792 5792 5792 5792 5793 5793 5794 5794 5794 5794 5793 5793 5794 5795 5795 5795
5842 5842 5842 5841 5841 5840 5840 5839 5838 5836 5835 5833 5831 5829 5828 5826 5824 5823 5822 5821 5820 5819 5818 5817 5816 5815 5814 5813 5812 5812 5811 5810 5809 5809 5808 5808 5807 5807 5807 5806 5805 5805 5804 5804 5803 5802 5802 5801 5800 5800 5799 5798 5798 5797 5797 5796 5796 5795 5795 5795 5794 5794 5794 5793 5793 5792 5792 5792 5792 5792 5792 5792 5792 5793 5793 5794 5793 5793 5793 5793 5793 5794 5794 5795 5795
5841 5840 5840 5840 5839 5839 5838 5837 5836 5835 5833 5832 5830 5828 5826 5825 5823 5822 5821 5820 5819 5818 5817 5817 5816 5815 5814 5813 5812 5811 5810 5810 5809 5808 5808 5807 5807 5807 5807 5806 5805 5805 5804 5804 5803 5802 5801 5801 5800 5799 5799 5798 5798 5797 5797 5796 5796 5795 5795 5795 5794 5794 5793 5793 5793 5792 5792 5792 5792 5792 5792 5792 5792 5792 5792 5792 5792 5792 5793 5793 5794 5795 5795 5795 5794
5839 5839 5839 5839 5838 5838 5837 5836 5835 5833 5832 5830 5828 5827 5825 5823 5822 5821 5820 5820 5819 5818 5817 5816 5815 5814 5813 5812 5811 5811 5810 5809 5808 5808 5807 5807 5807 5806 5806 5806 5805 5805 5804 5803 5803 5802 5801 5800 5800 5799 5798 5798 5797 5797 5796 5796 5796 5795 5795 5795 5794 5794 5793 5793 5793 5792 5792 5792 5792 5792 5792 5792 5792 5792 5792 5792 5792 5792 5793 5793 5793 5794 5795 5795 5795
5838 5838 5838 5837 5837 5836 5836 5835 5833 5832 5830 5829 5827 5825 5823 5822 5821 5820 5820 5819 5818 5817 5816 5815 5814 5813 5813 5812 5811 5810 5809 5808 5808 5807 5807 5807 5807 5806 5806 5805 5805 5804 5804 5803 5802 5801 5800 5799 5799 5798 5798 5797 5797 5797 5796 5796 5796 5795 5795 5795 5794 5794 5793 5793 5793 5792 5792 5792 5792 5791 5792 5792 5792 5792 5793 5794 5793 5793 5793 5793 5793 5794 5794 5794 5795
5836 5836 5836 5836 5835 5835 5834 5833 5832 5830 5829 5827 5825 5823 5822 5821 5820 5819 5819 5818 5817 5816 5816 5815 5814 5813 5812 5811 5811 5810 5809 5808 5807 5807 5807 5807 5807 5806 5806 5805 5805 5804 5803 5802 5802 5801 5799 5799 5798 5798 5797 5797 5797 5796 5796 5796 5796 5795 5795 5795 5795 5794 5793 5793 5793 5792 5792 5792 5792 5792 5792 5792 5792 5792 5793 5794 5794 5793 5793 5793 5794 5794 5795 5795 5795
5835 5835 5835 5834 5834 5833 5832 5831 5830 5829 5827 5825 5823 5822 5821 5820 5819 5819 5818 5817 5816 5816 5815 5814 5814 5813 5812 5811 5810 5809 5808 5807 5807 5807 5806 5806 5806 5806 5806 5805 5804 5803 5803 5802 5801 5800 5799 5798 5798 5797 5796 5796 5796 5796 5796 5796 5796 5795 5795 5795 5795 5794 5794 5793 5793 5793 5793 5792 5792 5792 5793 5793 5793 5792 5793 5794 5795 5795 5795 5794 5795 5796 5796 5796 5796
5834 5834 5833 5833 5833 5832 5831 5830 5829 5827 5825 5823 5822 5821 5820 5819 5818 5818 5817 5816 5816 5815 5815 5814 5813 5812 5811 5810 5810 5809 5808 5807 5807 5806 5806 5806 5806 5806 5806 5805 5804 5803 5802 5802 5801 5799 5798 5797 5797 5797 5796 5795 5795 5795 5795 5795 5795 5795 5795 5795 5795 5795 5794 5794 5793 5793 5793 5793 5793 5793 5794 5794 5794 5794 5794 5795 5796 5796 5797 5797 5797 5797 5797 5797 5798
5832 5832 5832 5832 5831 5831 5830 5828 5827 5825 5823 5822 5821 5820 5819 5818 5818 5817 5816 5816 5815 5815 5814 5813 5813 5812 5811 5810 5809 5808 5808 5807 5807 5806 5806 5806 5806 5805 5806 5805 5804 5803 5802 5801 5800 5799 5798 5797 5797 5796 5795 5795 5795 5795 5795 5795 5795 5795 5795 5795 5795 5795 5795 5794 5794 5794 5794 5794 5794 5795 5795 5795 5795 5795 5796 5796 5797 5797 5798 5798 5798 5798 5798 5798 5798
5831 5831 5831 5830 5830 5829 5828 5826 5825 5823 5822 5820 5819 5819 5818 5817 5817 5816 5816 5815 5815 5815 5814 5813 5812 5811 5811 5810 5809 5808 5808 5807 5807 5806 5806 5806 5805 5805 5805 5805 5804 5802 5801 5800 5799 5798 5797 5797 5796 5795 5794 5794 5794 5794 5794 5794 5795 5795 5795 5795 5796 5795 5795 5795 5795 5795 5795 5795 5795 5796 5796 5797 5796 5796 5797 5797 5797 5797 5798 5798 5798 5797 5797 5797 5797
5829 5829 5829 5829 5828 5827 5826 5824 5823 5822 5820 5819 5818 5817 5817 5816 5816 5816 5815 5815 5815 5814 5813 5813 5812 5811 5810 5809 5808 5808 5807 5807 5807 5807 5806 5806 5805 5804 5804 5804 5803 5802 5801 5800 5799 5798 5797 5796 5796 5795 5794 5794 5794 5794 5794 5794 5794 5795 5795 5795 5795 5796 5796 5796 5795 5795 5795 5795 5795 5796 5797 5798 5798 5798 5798 5798 5798 5798 5798 5798 5798 5797 5797 5797 5797
5828 5827 5827 5827 5826 5825 5824 5823 5821 5820 5819 5818 5817 5816 5816 5815 5815 5815 5815 5814 5814 5813 5813 5812 5811 5811 5810 5809 5808 5807 5807 5807 5807 5807 5806 5806 5805 5804 5804 5804 5803 5802 5801 5800 5799 5798 5797 5796 5795 5794 5794 5794 5793 5793 5793 5793 5794 5794 5795 5795 5795 5796 5796 5796 5796 5796 5796 5796 5796 5796 5797 5797 5798 5799 5799 5799 5799 5799 5799 5798 5798 5798 5798 5798 5798
5826 5826 5825 5825 5824 5823 5822 5821 5820 5819 5818 5817 5816 5815 5815 5815 5814 5814 5814 5813 5813 5813 5812 5812 5811 5810 5809 5809 5808 5807 5806 5806 5806 5806 5806 5805 5805 5804 5803 5803 5803 5802 5801 5800 5799 5797 5796 5796 5795 5794 5794 5794 5793 5793 5793 5793 5793 5794 5794 5795 5795 5796 5796 5796 5797 5797 5796 5796 5796 5796 5796 5797 5797 5798 5799 5799 5799 5799 5799 5799 5799 5799 5799 5799 5799
5824 5824 5824 5823 5822 5821 5820 5819 5818 5817 5816 5816 5815 5814 5814 5814 5814 5813 5813 5813 5813 5812 5812 5811 5810 5810 5809 5808 5807 5807 5806 5806 5806 5806 5806 5805 5804 5804 5803 5802 5802 5802 5801 5800 5799 5797 5795 5795 5795 5794 5794 5793 5793 5792 5792 5792 5793 5793 5794 5794 5795 5796 5796 5797 5797 5797 5797 5797 5797 5797 5797 5797 5797 5798 5798 5798 5799 5799 5799 5799 5799 5799 5799 5799 5799
5823 5822 5822 5821 5821 5820 5819 5818 5817 5816 5815 5814 5814 5813 5813 5813 5812 5812 5812 5812 5812 5812 5812 5811 5810 5809 5808 5807 5807 5806 5806 5805 5805 5805 5805 5804 5804 5803 5803 5802 5802 5802 5800 5799 5799 5797 5795 5794 5795 5795 5794 5793 5792 5792 5792 5792 5792 5793 5793 5794 5795 5796 5796 5797 5797 5798 5798 5798 5798 5798 5798 5798 5798 5798 5798 5798 5799 5799 5799 5799 5799 5799 5799 5799 5799
5821 5821 5820 5820 5819 5818 5817 5817 5816 5815 5814 5813 5813 5812 5812 5811 5811 5811 5811 5812 5811 5811 5811 5810 5809 5809 5808 5807 5806 5806 5805 5805 5805 5805 5804 5804 5803 5803 5802 5802 5801 5801 5800 5799 5798 5797 5795 5794 5795 5795 5794 5793 5792 5792 5792 5792 5792 5792 5793 5794 5795 5795 5796 5797 5798 5798 5798 5798 5798 5798 5798 5799 5799 5799 5798 5799 5799 5799 5799 5799 5799 5799 5799 5799 5800
5819 5819 5818 5818 5817 5817 5816 5815 5814 5814 5813 5812 5812 5811 5811 5810 5810 5810 5811 5811 5811 5811 5810 5810 5809 5808 5808 5807 5806 5805 5804 5804 5804 5804 5804 5803 5803 5802 5801 5801 5801 5801 5800 5799 5798 5797 5795 5794 5794 5795 5794 5793 5792 5792 5792 5792 5792 5792 5793 5793 5794 5795 5797 5797 5798 5798 5798 5798 5799 5799 5799 5799 5799 5799 5799 5799 5799 5799 5799 5799 5799 5800 5800 5800 5800
5818 5817 5817 5816 5816 5815 5815 5814 5813 5813 5812 5811 5811 5810 5810 5809 5810 5810 5810 5810 5810 5810 5810 5809 5809 5808 5807 5807 5806 5804 5804 5803 5803 5803 5803 5802 5802 5801 5800 5800 5800 5800 5800 5799 5798 5797 5795 5794 5794 5794 5794 5793 5792 5792 5792 5792 5792 5792 5793 5793 5794 5795 5796 5797 5797 5798 5798 5798 5799 5799 5799 5799 5799 5799 5799 5799 5799 5799 5799 5800 5800 5800 5800 5800 5800
5816 5816 5815 5815 5814 5814 5813 5812 5812 5811 5811 5810 5809 5809 5809 5809 5809 5809 5809 5810 5809 5809 5809 5808 5808 5807 5807 5806 5805 5804 5803 5803 5803 5803 5802 5802 5801 5800 5800 5799 5799 5799 5799 5798 5797 5796 5795 5794 5794 5794 5794 5793 5792 5792 5792 5792 5792 5792 5793 5793 5794 5795 5795 5796 5797 5797 5798 5798 5799 5799 5799 5800 5800 5800 5800 5800 5800 5800 5800 5800 5800 5801 5801 5800 5800
5814 5814 5814 5813 5813 5812 5812 5811 5811 5810 5809 5809 5809 5808 5808 5808 5808 5808 5809 5809 5809 5809 5808 5808 5807 5807 5806 5805 5804 5803 5802 5802 5802 5802 5801 5801 5800 5799 5799 5799 5799 5798 5798 5798 5797 5796 5795 5794 5794 5794 5794 5793 5793 5792 5792 5792 5792 5793 5793 5793 5794 5795 5795 5796 5797 5797 5798 5798 5799 5799 5799 5800 5800 5800 5800 5800 5800 5800 5800 5801 5801 5801 5801 5800 5800
5813 5813 5812 5812 5812 5811 5810 5810 5809 5809 5808 5808 5808 5807 5807 5807 5807 5807 5808 5808 5808 5808 5808 5808 5807 5806 5805 5804 5804 5803 5802 5801 5801 5801 5800 5800 5799 5799 5798 5798 5798 5798 5797 5797 5797 5796 5795 5795 5794 5794 5794 5794 5793 5793 5793 5793 5793 5793 5793 5793 5794 5795 5795 5796 5797 5797 5798 5798 5799 5799 5799 5800 5800 5800 5801 5801 5801 5801 5801 5801 5801 5800 5800 5800 5800
5811 5811 5811 5811 5810 5809 5809 5809 5808 5808 5807 5807 5807 5806 5806 5806 5807 5807 5807 5807 5807 5808 5808 5807 5806 5805 5804 5803 5803 5802 5801 5801 5800 5800 5800 5799 5798 5798 5798 5797 5797 5797 5796 5796 5796 5796 5795 5795 5794 5794 5794 5794 5794 5794 5794 5794 5794 5794 5794 5794 5794 5795 5796 5796 5797 5797 5798 5798 5799 5799 5799 5800 5800 5801 5801 5801 5801 5801 5801 5801 5801 5800 5800 5800 5800
5810 5809 5809 5809 5809 5808 5807 5807 5807 5807 5806 5806 5806 5806 5806 5806 5806 5806 5806 5806 5807 5807 5807 5806 5805 5804 5803 5803 5802 5801 5801 5800 5799 5799 5799 5798 5798 5797 5797 5797 5796 5796 5796 5796 5796 5796 5796 5795 5794 5794 5794 5794 5794 5794 5794 5794 5794 5794 5794 5795 5795 5795 5796 5797 5797 5798 5798 5799 5799 5799 5800 5800 5800 5801 5801 5801 5801 5801 5801 5801 5801 5800 5800 5800 5800
5808 5808 5808 5808 5807 5807 5806 5806 5806 5805 5805 5805 5805 5805 5805 5805 5805 5805 5805 5805 5806 5807 5806 5806 5804 5803 5803 5802 5801 5800 5800 5799 5798 5798 5798 5797 5797 5797 5796 5796 5796 5795 5795 5795 5795 5795 5795 5795 5795 5794 5794 5794 5794 5794 5795 5795 5794 5795 5795 5795 5796 5796 5797 5797 5798 5798 5799 5799 5799 5799 5800 5800 5800 5800 5800 5801 5801 5801 5801 5801 5801 5801 5801 5801 5801
5807 5806 5806 5806 5806 5805 5805 5805 5804 5804 5804 5804 5805 5804 5804 5804 5804 5804 5804 5804 5805 5806 5806 5805 5803 5802 5802 5801 5800 5799 5799 5798 5797 5797 5797 5796 5796 5796 5796 5795 5795 5795 5794 5795 5795 5795 5795 5795 5795 5794 5794 5794 5795 5795 5795 5795 5795 5795 5796 5796 5796 5797 5797 5798 5798 5799 5799 5799 5799 5799 5799 5799 5800 5800 5800 5800 5801 5801 5801 5801 5801 5801 5801 5801 5801
5805 5805 5805 5805 5804 5804 5804 5804 5803 5803 5804 5804 5804 5804 5803 5803 5803 5803 5803 5804 5804 5805 5805 5804 5803 5801 5801 5800 5799 5798 5798 5797 5797 5796 5796 5795 5796 5796 5795 5795 5794 5794 5794 5794 5794 5795 5795 5794 5794 5795 5795 5795 5795 5795 5795 5796 5796 5796 5796 5797 5797 5798 5798 5798 5799 5799 5799 5799 5799 5799 5799 5799 5799 5800 5800 5800 5800 5801 5801 5801 5801 5801 5801 5801 5801
5804 5803 5803 5803 5803 5803 5803 5803 5803 5803 5803 5803 5803 5803 5802 5802 5802 5802 5802 5803 5803 5804 5804 5803 5802 5800 5800 5799 5798 5797 5797 5797 5796 5795 5795 5795 5795 5795 5795 5794 5794 5794 5793 5793 5794 5794 5794 5794 5794 5795 5795 5795 5795 5795 5796 5796 5796 5796 5797 5797 5798 5798 5798 5799 5799 5799 5799 5799 5799 5799 5799 5799 5800 5800 5800 5800 5800 5800 5800 5800 5800 5800 5800 5801 5801
5802 5802 5802 5802 5801 5801 5802 5802 5802 5802 5802 5802 5802 5802 5802 5801 5801 5801 5802 5802 5803 5803 5802 5802 5801 5800 5799 5798 5797 5797 5796 5796 5795 5795 5794 5794 5794 5794 5794 5794 5794 5794 5793 5793 5793 5794 5794 5794 5795 5795 5795 5796 5796 5796 5796 5797 5797 5797 5798 5798 5798 5799 5799 5799 5799 5799 5799 5799 5799 5799 5799 5799 5800 5800 5800 5800 5800 5800 5800 5800 5800 5800 5800 5800 5800
5800 5800 5800 5800 5800 5800 5800 5800 5801 5801 5801 5801 5801 5801 5801 5801 5800 5800 5801 5801 5802 5802 5801 5800 5800 5799 5798 5797 5796 5796 5795 5795 5794 5794 5793 5793 5793 5793 5793 5793 5793 5793 5793 5793 5793 5793 5794 5794 5795 5795 5795 5796 5796 5796 5797 5797 5797 5798 5798 5799 5799 5799 5799 5799 5799 5799 5799 5799 5799 5799 5799 5799 5800 5800 5800 5800 5800 5800 5800 5800 5800 5800 5800 5800 5800
5799 5799 5799 5799 5799 5799 5799 5799 5800 5800 5800 5800 5800 5800 5800 5800 5800 5799 5800 5800 5801 5801 5800 5799 5799 5798 5797 5796 5795 5794 5794 5793 5793 5793 5793 5792 5792 5793 5792 5793 5793 5793 5793 5793 5793 5794 5794 5795 5795 5795 5796 5796 5796 5797 5797 5797 5798 5798 5798 5799 5799 5799 5799 5799 5799 5799 5799 5799 5799 5799 5799 5799 5799 5800 5800 5800 5800 5800 5800 5800 5800 5800 5800 5800 5800
5797 5798 5798 5798 5798 5798 5798 5798 5799 5799 5799 5799 5799 5799 5799 5799 5799 5798 5799 5799 5800 5800 5799 5799 5798 5797 5796 5795 5794 5794 5793 5792 5792 5792 5792 5792 5792 5792 5792 5792 5793 5793 5793 5793 5793 5794 5794 5795 5795 5796 5796 5796 5796 5797 5797 5798 5798 5798 5798 5799 5799 5799 5799 5799 5799 5799 5799 5799 5799 5799 5799 5799 5799 5800 5800 5800 5800 5800 5800 5800 5800 5799 5799 5799 5799
5796 5796 5797 5797 5797 5797 5797 5797 5797 5798 5798 5798 5798 5798 5798 5798 5797 5798 5798 5799 5799 5799 5798 5798 5797 5796 5795 5794 5793 5793 5792 5792 5791 5791 5791 5791 5791 5792 5792 5792 5792 5793 5793 5794 5794 5794 5794 5795 5795 5796 5796 5796 5796 5797 5797 5797 5798 5798 5798 5798 5798 5798 5798 5798 5798 5798 5798 5798 5798 5799 5799 5799 5799 5799 5799 5799 5799 5800 5799 5799 5799 5799 5798 5798 5798
5795 5795 5795 5795 5795 5796 5796 5796 5796 5797 5797 5797 5797 5797 5797 5796 5796 5797 5797 5798 5798 5797 5797 5797 5796 5795 5794 5793 5793 5792 5791 5791 5791 5791 5791 5791 5791 5791 5792 5792 5792 5793 5793 5794 5795 5795 5795 5795 5795 5795 5795 5796 5796 5796 5797 5797 5797 5797 5798 5798 5798 5798 5798 5798 5798 5798 5798 5798 5798 5798 5798 5798 5798 5799 5799 5799 5799 5799 5799 5799 5798 5798 5797 5797 5797
5793 5794 5794 5794 5794 5794 5795 5795 5795 5796 5796 5796 5796 5796 5796 5795 5795 5796 5796 5797 5797 5796 5796 5796 5795 5795 5794 5793 5792 5791 5791 5790 5790 5790 5790 5790 5790 5791 5791 5792 5792 5793 5794 5795 5795 5796 5796 5796 5795 5795 5795 5796 5796 5796 5796 5797 5797 5797 5797 5797 5797 5797 5797 5797 5797 5797 5797 5797 5798 5797 5798 5798 5798 5798 5798 5798 5798 5798 5798 5798 5797 5797 5797 5796 5796
5792 5792 5792 5792 5793 5793 5794 5794 5794 5795 5795 5795 5795 5795 5795 5795 5795 5795 5796 5796 5796 5796 5795 5795 5794 5794 5793 5792 5791 5791 5790 5790 5790 5790 5790 5790 5790 5790 5791 5792 5793 5793 5794 5795 5796 5796 5797 5797 5796 5796 5796 5796 5796 5796 5796 5796 5796 5796 5796 5796 5796 5796 5796 5796 5796 5796 5796 5796 5796 5797 5796 5796 5797 5797 5797 5797 5797 5797 5796 5796 5796 5796 5795 5795 5794
5790 5790 5791 5791 5791 5792 5793 5793 5793 5794 5794 5794 5794 5794 5794 5794 5794 5794 5795 5795 5795 5795 5795 5794 5793 5793 5792 5791 5791 5790 5790 5790 5789 5790 5790 5790 5790 5790 5791 5792 5793 5793 5794 5795 5795 5796 5796 5797 5797 5797 5796 5796 5796 5796 5796 5796 5796 5796 5796 5796 5796 5796 5795 5795 5795 5795 5795 5795 5795 5795 5795 5795 5795 5796 5796 5795 5795 5795 5795 5794 5794 5794 5793 5793 5792
5789 5789 5789 5790 5790 5791 5791 5792 5792 5793 5793 5793 5793 5793 5793 5793 5793 5793 5794 5794 5794 5794 5794 5793 5793 5792 5791 5791 5790 5790 5789 5789 5789 5789 5790 5790 5790 5790 5791 5792 5793 5793 5794 5794 5795 5795 5796 5796 5796 5797 5797 5796 5796 5796 5796 5795 5795 5795 5795 5795 5795 5795 5795 5794 5794 5794 5794 5794 5794 5794 5794 5794 5794 5794 5794 5794 5793 5793 5793 5792 5792 5792 5791 5791 5790
5787 5788 5788 5788 5789 5790 5790 5791 5791 5792 5792 5792 5792 5792 5792 5792 5792 5792 5793 5793 5793 5793 5793 5793 5792 5791 5791 5790 5790 5789 5789 5789 5789 5789 5790 5790 5790 5791 5791 5792 5792 5793 5793 5794 5795 5795 5795 5796 5796 5796 5796 5796 5796 5796 5796 5795 5795 5795 5795 5794 5794 5794 5794 5793 5793 5793 5793 5793 5793 5793 5793 5793 5793 5793 5792 5792 5791 5791 5790 5790 5790 5789 5789 5788 5787
5786 5786 5786 5787 5788 5788 5789 5790 5790 5790 5790 5791 5791 5791 5791 5791 5791 5791 5792 5792 5792 5792 5792 5792 5791 5791 5790 5790 5789 5789 5789 5789 5789 5789 5790 5790 5790 5790 5791 5791 5792 5792 5793 5793 5794 5794 5795 5795 5795 5795 5795 5795 5795 5795 5795 5795 5794 5794 5794 5794 5794 5794 5793 5793 5792 5792 5792 5792 5792 5791 5791 5791 5791 5790 5790 5789 5789 5789 5788 5788 5787 5787 5786 5785 5785
5784 5785 5785 5786 5787 5787 5788 5788 5789 5789 5789 5790 5790 5790 5790 5790 5790 5790 5791 5791 5791 5791 5791 5790 5790 5790 5790 5789 5789 5789 5789 5789 5789 5789 5790 5790 5790 5790 5791 5791 5792 5792 5792 5793 5793 5793 5794 5794 5794 5794 5794 5794 5794 5794 5794 5794 5794 5793 5793 5793 5793 5793 5792 5792 5791 5791 5791 5791 5790 5790 5789 5789 5789 5788 5788 5787 5787 5786 5786 5786 5785 5785 5784 5783 5783
5783 5783 5784 5785 5786 5786 5787 5787 5788 5788 5788 5789 5789 5789 5789 5789 5789 5789 5790 5790 5790 5790 5790 5790 5789 5789 5789 5789 5788 5788 5788 5789 5789 5789 5789 5789 5790 5790 5790 5791 5791 5792 5792 5792 5793 5793 5793 5793 5793 5793 5793 5793 5793 5793 5793 5792 5792 5792 5792 5792 5792 5791 5791 5791 5790 5790 5790 5789 5789 5788 5788 5787 5786 5786 5785 5785 5785 5784 5784 5784 5783 5782 5782 5781 5780
5782 5783 5783 5784 5784 5785 5786 5786 5787 5787 5787 5787 5787 5788 5788 5788 5788 5788 5788 5789 5789 5789 5789 5789 5789 5788 5788 5788 5788 5788 5788 5788 5788 5789 5789 5789 5789 5790 5790 5790 5791 5791 5792 5792 5792 5792 5792 5792 5792 5792 5791 5791 5791 5791 5791 5791 5791 5791 5790 5790 5790 5790 5789 5789 5789 5788 5788 5788 5787 5787 5786 5785 5785 5784 5784 5783 5783 5782 5781 5781 5780 5780 5779 5778 5777
5781 5782 5782 5783 5783 5784 5785 5785 5786 5786 5786 5786 5786 5786 5787 5787 5787 5787 5787 5787 5788 5788 5788 5788 5788 5788 5788 5787 5787 5787 5787 5788 5788 5788 5788 5788 5789 5789 5789 5790 5791 5791 5792 5792 5792 5792 5791 5791 5791 5790 5790 5790 5790 5790 5790 5789 5789 5789 5789 5789 5789 5788 5788 5787 5787 5786 5786 5786 5785 5785 5784 5784 5783 5782 5782 5781 5780 5779 5778 5778 5777 5776 5776 5775 5774